Location: Unspecified
(35.7250°N, 0.0000°E)
Time: 07:11:58
(UTC+00:00)

Vanguard 1 - Pass Details

Date: 25 June 2019
Orbit: 653 x 3830 km, 34.3° (Epoch: 17 July)

Event Time Altitude Azimuth Distance (km) Brightness Sun altitude
Rises 06:54:03 0° 283° (WNW) 6,010 13.6 23.4°
Reaches altitude 10° 06:58:50 10° 279° (W) 4,468 13.0 24.4°
Maximum altitude 07:09:12 51° 208° (SSW) 1,535 11.1 26.4°
Drops below altitude 10° 07:15:06 10° 133° (SE) 2,587 12.8 27.6°
Sets 07:17:12 0° 127° (SE) 3,331 13.4 28.0°
